IQ8VX-3 Weather Reports


time (UTC)temp
C
wind
direction
speed
KPH
gust
KPH
rain 1hr
cm
rain 24hr
cm
rain mn
cm
humidity
%
barometer
mb
20260506003616 16 0.0 0.0 0.00 0.00 0.00 96 1661.9
20260506001615 16 0.0 0.0 0.00 0.00 0.00 96 1696.9
20260505235615 16 0.0 0.0 0.00 0.00 0.00 96 1696.6
20260505233615 16 0.0 0.0 0.00 0.00 0.00 95 1696.8
20260505231615 16 0.0 0.0 0.00 0.00 0.00 96 1696.8
20260505225614 16 0.0 0.0 0.00 0.00 0.00 96 1696.9
20260505223614 16 0.0 0.0 0.00 0.00 0.00 97 1697.1
20260505221614 16 0.0 0.0 0.00 0.00 0.00 97 1697.2
20260505215613 16 0.0 0.0 0.00 0.00 0.00 96 1696.9
20260505213613 16 0.0 0.0 0.00 0.00 0.00 96 1697.0
20260505211613 16 0.0 0.0 0.00 0.00 0.00 96 1697.0
20260505205612 16 0.0 0.0 0.00 0.00 0.00 96 1697.0
20260505203612 16 0.0 0.0 0.00 0.00 0.00 95 1697.1
20260505201612 16 0.0 0.0 0.00 0.00 0.00 95 1697.2
20260505195611 16 0.0 0.0 0.00 0.00 0.00 95 1697.5
20260505193611 16 0.0 0.0 0.00 0.00 0.00 94 1698.0
20260505191611 16 0.0 0.0 0.00 0.00 0.00 94 1698.0
20260505185610 16 0.0 0.0 0.00 0.00 0.00 94 1697.9
20260505183610 16 0.0 0.0 0.00 0.00 0.00 94 1697.8
20260505181610 16 0.0 0.0 0.00 0.00 0.00 93 1698.3
20260505175610 16 0.0 0.0 0.00 0.00 0.00 92 1698.6
20260505173609 17 0.0 0.0 0.00 0.00 0.00 90 1699.2
20260505171609 17 0.0 0.0 0.00 0.00 0.00 88 1700.1
20260505165609 18 0.0 0.0 0.00 0.00 0.00 85 1701.8
20260505163608 18 0.0 0.0 0.00 0.00 0.00 84 1703.6
20260505161710 18 0.0 0.0 0.00 0.00 0.00 84 1702.5
20260505151709 20 0.0 0.0 0.00 0.00 0.00 78 1707.9
20260505123707 21 0.0 0.0 0.00 0.00 0.00 72 1710.7
20260505121707 22 0.0 0.0 0.00 0.00 0.00 70 1712.4
20260505115706 22 0.0 0.0 0.00 0.00 0.00 72 1711.9
20260505113706 21 0.0 0.0 0.00 0.00 0.00 72 1711.0
20260505111706 22 0.0 0.0 0.00 0.00 0.00 71 1711.8
20260505101705 21 0.0 0.0 0.00 0.00 0.00 68 1709.5
20260505095704 21 0.0 0.0 0.00 0.00 0.00 69 1709.7
20260505093704 21 0.0 0.0 0.00 0.00 0.00 69 1710.1
20260505091704 20 0.0 0.0 0.00 0.00 0.00 69 1707.9
20260505085704 20 0.0 0.0 0.00 0.00 0.00 69 1707.0
20260505083703 20 0.0 0.0 0.00 0.00 0.00 72 1705.9
20260505081703 19 0.0 0.0 0.00 0.00 0.00 74 1704.7
20260505075703 20 0.0 0.0 0.00 0.00 0.00 75 1706.4
20260505073702 19 0.0 0.0 0.00 0.00 0.00 74 1705.7
20260505071702 18 0.0 0.0 0.00 0.00 0.00 80 1704.3
20260505065702 18 0.0 0.0 0.00 0.00 0.00 84 1703.4
20260505063701 17 0.0 0.0 0.00 0.00 0.00 87 1701.2
20260505061701 17 0.0 0.0 0.00 0.00 0.00 85 1700.9
20260505055701 17 0.0 0.0 0.00 0.00 0.00 82 1699.5
20260505053700 16 0.0 0.0 0.00 0.00 0.00 81 1697.8
20260505051700 16 0.0 0.0 0.00 0.00 0.00 81 1696.9
20260505041659 15 0.0 0.0 0.00 0.00 0.00 78 1694.2
20260505035659 15 0.0 0.0 0.00 0.00 0.00 81 1692.9
20260505033658 14 0.0 0.0 0.00 0.00 0.00 82 1692.2
20260505031658 13 0.0 0.0 0.00 0.00 0.00 84 1690.7
20260505025658 13 0.0 0.0 0.00 0.00 0.00 85 1690.7
20260505023658 13 0.0 0.0 0.00 0.00 0.00 86 1690.7
20260505021657 13 0.0 0.0 0.00 0.00 0.00 87 1689.2
20260505015657 13 0.0 0.0 0.00 0.00 0.00 87 1688.5
20260505013657 12 0.0 0.0 0.00 0.00 0.00 88 1687.9
20260505011656 12 0.0 0.0 0.00 0.00 0.00 87 1687.9
20260505005656 12 0.0 0.0 0.00 0.00 0.00 86 1688.1